contact:dominique.lefevre@mio.osupytheas.fr, maurice.libes@osupytheas.fr, didier.mallarino@osupytheas.fr
Project:EMSO http://www.emso-fr.org/EMSO-France
Depth: 2436.0 m
Title:EMSO Ligure Ouest : Data MII capteur MICROCAT
DateTime_Computer,Latitude,Longitude,Temperature,Conductivity,Pressure,DateTime_Instrument
DateTime_Computer,Latitude,Longitude,degC,S m-1,dbar,DateTime_Instrument
2019-07-10T00:00:52Z,42.805,6.029,13.2959,4.59953,2469.947,2019-7-10T02:01:10Z
2019-07-10T00:03:55Z,42.805,6.029,13.2953,4.59953,2469.984,2019-7-10T02:04:13Z
2019-07-10T00:06:58Z,42.805,6.029,13.2955,4.59954,2469.96,2019-7-10T02:07:15Z
2019-07-10T00:10:00Z,42.805,6.029,13.2953,4.59959,2469.947,2019-7-10T02:10:18Z
2019-07-10T00:13:03Z,42.805,6.029,13.2955,4.59953,2469.937,2019-7-10T02:13:21Z
2019-07-10T00:16:06Z,42.805,6.029,13.2956,4.59954,2469.947,2019-7-10T02:16:24Z
2019-07-10T00:19:09Z,42.805,6.029,13.2954,4.59961,2469.923,2019-7-10T02:19:27Z
2019-07-10T00:22:12Z,42.805,6.029,13.2956,4.59955,2469.923,2019-7-10T02:22:30Z
2019-07-10T00:25:15Z,42.805,6.029,13.2953,4.59954,2469.96,2019-7-10T02:25:33Z
2019-07-10T00:28:18Z,42.805,6.029,13.2957,4.59956,2469.984,2019-7-10T02:28:36Z
2019-07-10T00:31:21Z,42.805,6.029,13.2956,4.59958,2469.947,2019-7-10T02:31:39Z
2019-07-10T00:34:24Z,42.805,6.029,13.2957,4.59954,2469.923,2019-7-10T02:34:42Z
2019-07-10T00:37:27Z,42.805,6.029,13.2954,4.59954,2469.97,2019-7-10T02:37:45Z
2019-07-10T00:40:30Z,42.805,6.029,13.2952,4.59954,2469.96,2019-7-10T02:40:48Z
2019-07-10T00:43:33Z,42.805,6.029,13.2956,4.59953,2469.947,2019-7-10T02:43:51Z
2019-07-10T00:46:36Z,42.805,6.029,13.2953,4.59951,2469.947,2019-7-10T02:46:54Z
2019-07-10T00:49:39Z,42.805,6.029,13.2956,4.59955,2469.947,2019-7-10T02:49:57Z
2019-07-10T00:52:42Z,42.805,6.029,13.2955,4.59952,2469.984,2019-7-10T02:53:00Z
2019-07-10T00:55:45Z,42.805,6.029,13.2958,4.59952,2469.96,2019-7-10T02:56:03Z
2019-07-10T00:58:48Z,42.805,6.029,13.2958,4.59964,2469.984,2019-7-10T02:59:06Z
2019-07-10T01:01:51Z,42.805,6.029,13.2958,4.59954,2469.96,2019-7-10T03:02:09Z
2019-07-10T01:04:54Z,42.805,6.029,13.2952,4.59954,2469.97,2019-7-10T03:05:12Z
2019-07-10T01:07:57Z,42.805,6.029,13.2958,4.59953,2469.97,2019-7-10T03:08:14Z
2019-07-10T01:10:59Z,42.805,6.029,13.2952,4.59955,2469.923,2019-7-10T03:11:17Z
2019-07-10T01:14:02Z,42.805,6.029,13.2948,4.59953,2469.97,2019-7-10T03:14:20Z
2019-07-10T01:17:05Z,42.805,6.029,13.2955,4.59954,2469.937,2019-7-10T03:17:23Z
2019-07-10T01:20:08Z,42.805,6.029,13.2953,4.59953,2469.923,2019-7-10T03:20:26Z
2019-07-10T01:23:11Z,42.805,6.029,13.2955,4.59954,2469.97,2019-7-10T03:23:29Z
2019-07-10T01:26:14Z,42.805,6.029,13.2954,4.59954,2469.97,2019-7-10T03:26:32Z
2019-07-10T01:29:17Z,42.805,6.029,13.2955,4.59958,2469.984,2019-7-10T03:29:35Z
2019-07-10T01:32:20Z,42.805,6.029,13.2953,4.59963,2469.97,2019-7-10T03:32:38Z
2019-07-10T01:35:23Z,42.805,6.029,13.2957,4.59953,2469.947,2019-7-10T03:35:41Z
2019-07-10T01:38:26Z,42.805,6.029,13.2959,4.59954,2469.937,2019-7-10T03:38:44Z
2019-07-10T01:41:29Z,42.805,6.029,13.2953,4.59956,2469.96,2019-7-10T03:41:47Z
2019-07-10T01:44:32Z,42.805,6.029,13.2955,4.59955,2469.947,2019-7-10T03:44:50Z
2019-07-10T01:47:35Z,42.805,6.029,13.2957,4.59954,2469.947,2019-7-10T03:47:53Z
2019-07-10T01:50:38Z,42.805,6.029,13.2956,4.59954,2469.947,2019-7-10T03:50:56Z
2019-07-10T01:53:41Z,42.805,6.029,13.2955,4.59955,2469.96,2019-7-10T03:53:59Z
2019-07-10T01:56:44Z,42.805,6.029,13.2954,4.59961,2469.947,2019-7-10T03:57:02Z
2019-07-10T01:59:47Z,42.805,6.029,13.2955,4.59955,2470.007,2019-7-10T04:00:05Z
2019-07-10T02:02:50Z,42.805,6.029,13.2955,4.59954,2469.984,2019-7-10T04:03:08Z
2019-07-10T02:05:53Z,42.805,6.029,13.2954,4.59958,2469.923,2019-7-10T04:06:11Z
2019-07-10T02:08:55Z,42.805,6.029,13.2954,4.59956,2469.947,2019-7-10T04:09:13Z
2019-07-10T02:11:58Z,42.805,6.029,13.2957,4.59956,2469.96,2019-7-10T04:12:16Z
2019-07-10T02:15:01Z,42.805,6.029,13.2956,4.59956,2469.947,2019-7-10T04:15:19Z
2019-07-10T02:18:04Z,42.805,6.029,13.2957,4.59954,2469.947,2019-7-10T04:18:22Z
2019-07-10T02:21:07Z,42.805,6.029,13.2952,4.59953,2469.923,2019-7-10T04:21:25Z
2019-07-10T02:24:10Z,42.805,6.029,13.2957,4.59953,2469.97,2019-7-10T04:24:28Z
2019-07-10T02:27:13Z,42.805,6.029,13.2955,4.59953,2469.947,2019-7-10T04:27:31Z
2019-07-10T02:30:16Z,42.805,6.029,13.2953,4.59954,2469.96,2019-7-10T04:30:34Z
2019-07-10T02:33:19Z,42.805,6.029,13.2952,4.59953,2469.937,2019-7-10T04:33:37Z
2019-07-10T02:36:22Z,42.805,6.029,13.2955,4.59954,2469.947,2019-7-10T04:36:40Z
2019-07-10T02:39:25Z,42.805,6.029,13.2954,4.59958,2469.947,2019-7-10T04:39:43Z
2019-07-10T02:42:28Z,42.805,6.029,13.2955,4.59955,2469.947,2019-7-10T04:42:46Z
2019-07-10T02:45:31Z,42.805,6.029,13.2955,4.59955,2469.947,2019-7-10T04:45:49Z
2019-07-10T02:48:34Z,42.805,6.029,13.2958,4.59955,2469.984,2019-7-10T04:48:52Z
2019-07-10T02:51:37Z,42.805,6.029,13.2953,4.59954,2469.937,2019-7-10T04:51:55Z
2019-07-10T02:54:40Z,42.805,6.029,13.2952,4.59955,2469.947,2019-7-10T04:54:58Z
2019-07-10T02:57:43Z,42.805,6.029,13.2956,4.59955,2469.9,2019-7-10T04:58:01Z
2019-07-10T03:00:46Z,42.805,6.029,13.2956,4.59954,2469.937,2019-7-10T05:01:04Z
2019-07-10T03:03:49Z,42.805,6.029,13.2953,4.59954,2469.923,2019-7-10T05:04:07Z
2019-07-10T03:06:51Z,42.805,6.029,13.2955,4.59955,2469.937,2019-7-10T05:07:09Z
2019-07-10T03:09:54Z,42.805,6.029,13.2957,4.59954,2469.914,2019-7-10T05:10:12Z
2019-07-10T03:12:57Z,42.805,6.029,13.2955,4.59956,2469.914,2019-7-10T05:13:15Z
2019-07-10T03:16:00Z,42.805,6.029,13.2959,4.59964,2469.923,2019-7-10T05:16:18Z
2019-07-10T03:19:03Z,42.805,6.029,13.2954,4.59954,2469.923,2019-7-10T05:19:21Z
2019-07-10T03:22:06Z,42.805,6.029,13.2954,4.59955,2469.947,2019-7-10T05:22:24Z
2019-07-10T03:25:09Z,42.805,6.029,13.2952,4.59955,2469.914,2019-7-10T05:25:27Z
2019-07-10T03:28:12Z,42.805,6.029,13.2953,4.59956,2469.9,2019-7-10T05:28:30Z
2019-07-10T03:31:15Z,42.805,6.029,13.2959,4.59956,2469.914,2019-7-10T05:31:33Z
2019-07-10T03:34:18Z,42.805,6.029,13.2953,4.59954,2469.923,2019-7-10T05:34:36Z
2019-07-10T03:37:21Z,42.805,6.029,13.2953,4.59953,2469.923,2019-7-10T05:37:39Z
2019-07-10T03:40:24Z,42.805,6.029,13.2956,4.59954,2469.937,2019-7-10T05:40:42Z
2019-07-10T03:43:27Z,42.805,6.029,13.2952,4.59953,2469.9,2019-7-10T05:43:45Z
2019-07-10T03:46:30Z,42.805,6.029,13.2953,4.59955,2469.937,2019-7-10T05:46:48Z
2019-07-10T03:49:33Z,42.805,6.029,13.2953,4.59958,2469.914,2019-7-10T05:49:51Z
2019-07-10T03:52:36Z,42.805,6.029,13.2957,4.59954,2469.9,2019-7-10T05:52:54Z
2019-07-10T03:55:39Z,42.805,6.029,13.2956,4.59966,2469.914,2019-7-10T05:55:57Z
2019-07-10T03:58:42Z,42.805,6.029,13.2952,4.59954,2469.923,2019-7-10T05:59:00Z
2019-07-10T04:01:45Z,42.805,6.029,13.2953,4.59953,2469.914,2019-7-10T06:02:03Z
2019-07-10T04:04:48Z,42.805,6.029,13.2955,4.59969,2469.914,2019-7-10T06:05:06Z
2019-07-10T04:07:50Z,42.805,6.029,13.2953,4.59954,2469.923,2019-7-10T06:08:08Z
2019-07-10T04:10:53Z,42.805,6.029,13.2955,4.59954,2469.9,2019-7-10T06:11:11Z
2019-07-10T04:13:56Z,42.805,6.029,13.2953,4.59955,2469.863,2019-7-10T06:14:14Z
2019-07-10T04:16:59Z,42.805,6.029,13.2956,4.59956,2469.876,2019-7-10T06:17:17Z
2019-07-10T04:20:02Z,42.805,6.029,13.2958,4.59956,2469.9,2019-7-10T06:20:20Z
2019-07-10T04:23:05Z,42.805,6.029,13.2956,4.59954,2469.9,2019-7-10T06:23:23Z
2019-07-10T04:26:08Z,42.805,6.029,13.2955,4.59952,2469.914,2019-7-10T06:26:26Z
2019-07-10T04:29:11Z,42.805,6.029,13.2954,4.59954,2469.89,2019-7-10T06:29:29Z
2019-07-10T04:32:14Z,42.805,6.029,13.2956,4.59954,2469.89,2019-7-10T06:32:32Z
2019-07-10T04:35:17Z,42.805,6.029,13.2952,4.59953,2469.9,2019-7-10T06:35:35Z
2019-07-10T04:38:20Z,42.805,6.029,13.2957,4.59954,2469.914,2019-7-10T06:38:38Z
2019-07-10T04:41:23Z,42.805,6.029,13.2952,4.59955,2469.89,2019-7-10T06:41:41Z
2019-07-10T04:44:26Z,42.805,6.029,13.2951,4.59956,2469.9,2019-7-10T06:44:44Z
2019-07-10T04:47:29Z,42.805,6.029,13.2956,4.59954,2469.876,2019-7-10T06:47:47Z
2019-07-10T04:50:32Z,42.805,6.029,13.2954,4.59953,2469.867,2019-7-10T06:50:50Z
2019-07-10T04:53:35Z,42.805,6.029,13.2953,4.59962,2469.867,2019-7-10T06:53:53Z
2019-07-10T04:56:38Z,42.805,6.029,13.2954,4.59955,2469.89,2019-7-10T06:56:56Z
2019-07-10T04:59:41Z,42.805,6.029,13.2952,4.59956,2469.876,2019-7-10T06:59:59Z
2019-07-10T05:02:44Z,42.805,6.029,13.2951,4.59957,2469.876,2019-7-10T07:03:01Z
2019-07-10T05:05:46Z,42.805,6.029,13.2953,4.59959,2469.89,2019-7-10T07:06:04Z
2019-07-10T05:08:49Z,42.805,6.029,13.2956,4.59954,2469.876,2019-7-10T07:09:07Z
2019-07-10T05:11:52Z,42.805,6.029,13.2953,4.59952,2469.89,2019-7-10T07:12:10Z
2019-07-10T05:14:55Z,42.805,6.029,13.2953,4.59956,2469.876,2019-7-10T07:15:13Z
2019-07-10T05:17:58Z,42.805,6.029,13.2951,4.59966,2469.867,2019-7-10T07:18:16Z
2019-07-10T05:21:01Z,42.805,6.029,13.2953,4.59975,2469.853,2019-7-10T07:21:19Z
2019-07-10T05:24:04Z,42.805,6.029,13.2954,4.59956,2469.876,2019-7-10T07:24:22Z
2019-07-10T05:27:07Z,42.805,6.029,13.2949,4.59958,2469.853,2019-7-10T07:27:25Z
2019-07-10T05:30:10Z,42.805,6.029,13.2953,4.59954,2469.83,2019-7-10T07:30:28Z
2019-07-10T05:33:13Z,42.805,6.029,13.2953,4.59956,2469.867,2019-7-10T07:33:31Z
2019-07-10T05:36:16Z,42.805,6.029,13.2954,4.59954,2469.853,2019-7-10T07:36:34Z
2019-07-10T05:39:19Z,42.805,6.029,13.2953,4.59954,2469.853,2019-7-10T07:39:37Z
2019-07-10T05:42:22Z,42.805,6.029,13.2952,4.59957,2469.923,2019-7-10T07:42:40Z
2019-07-10T05:45:25Z,42.805,6.029,13.2956,4.59954,2469.853,2019-7-10T07:45:43Z
2019-07-10T05:48:28Z,42.805,6.029,13.2954,4.59956,2469.853,2019-7-10T07:48:46Z
2019-07-10T05:51:31Z,42.805,6.029,13.2954,4.59960,2469.844,2019-7-10T07:51:49Z
2019-07-10T05:54:34Z,42.805,6.029,13.2956,4.59954,2469.83,2019-7-10T07:54:52Z
2019-07-10T05:57:37Z,42.805,6.029,13.2952,4.59957,2469.853,2019-7-10T07:57:55Z
2019-07-10T06:00:40Z,42.805,6.029,13.2951,4.59954,2469.853,2019-7-10T08:00:58Z
2019-07-10T06:03:43Z,42.805,6.029,13.2953,4.59953,2469.83,2019-7-10T08:04:00Z
2019-07-10T06:06:45Z,42.805,6.029,13.2953,4.59964,2469.89,2019-7-10T08:07:03Z
2019-07-10T06:09:48Z,42.805,6.029,13.2952,4.59961,2469.844,2019-7-10T08:10:06Z
2019-07-10T06:12:51Z,42.805,6.029,13.2955,4.59953,2469.806,2019-7-10T08:13:09Z
2019-07-10T06:15:54Z,42.805,6.029,13.2953,4.59956,2469.83,2019-7-10T08:16:12Z
2019-07-10T06:18:57Z,42.805,6.029,13.2959,4.59954,2469.844,2019-7-10T08:19:15Z
2019-07-10T06:22:00Z,42.805,6.029,13.2958,4.59954,2469.853,2019-7-10T08:22:18Z
2019-07-10T06:25:03Z,42.805,6.029,13.2955,4.59954,2469.806,2019-7-10T08:25:21Z
2019-07-10T06:28:06Z,42.805,6.029,13.2958,4.59953,2469.83,2019-7-10T08:28:24Z
2019-07-10T06:31:09Z,42.805,6.029,13.2954,4.59953,2469.821,2019-7-10T08:31:27Z
2019-07-10T06:34:12Z,42.805,6.029,13.2953,4.59952,2469.83,2019-7-10T08:34:30Z
2019-07-10T06:37:15Z,42.805,6.029,13.2957,4.59951,2469.783,2019-7-10T08:37:33Z
2019-07-10T06:40:18Z,42.805,6.029,13.2953,4.59953,2469.821,2019-7-10T08:40:36Z
2019-07-10T06:43:21Z,42.805,6.029,13.2953,4.59951,2469.83,2019-7-10T08:43:39Z
2019-07-10T06:46:24Z,42.805,6.029,13.2953,4.59954,2469.806,2019-7-10T08:46:42Z
2019-07-10T06:49:27Z,42.805,6.029,13.2954,4.59953,2469.806,2019-7-10T08:49:45Z
2019-07-10T06:52:30Z,42.805,6.029,13.2952,4.59951,2469.806,2019-7-10T08:52:48Z
2019-07-10T06:55:33Z,42.805,6.029,13.2954,4.59952,2469.773,2019-7-10T08:55:51Z
2019-07-10T06:58:36Z,42.805,6.029,13.2956,4.59951,2469.821,2019-7-10T08:58:54Z
2019-07-10T07:01:39Z,42.805,6.029,13.2953,4.59952,2469.806,2019-7-10T09:01:57Z
2019-07-10T07:04:41Z,42.805,6.029,13.2953,4.59958,2469.821,2019-7-10T09:04:59Z
2019-07-10T07:07:44Z,42.805,6.029,13.2959,4.59953,2469.844,2019-7-10T09:08:02Z
2019-07-10T07:10:47Z,42.805,6.029,13.2957,4.59952,2469.821,2019-7-10T09:11:05Z
2019-07-10T07:13:50Z,42.805,6.029,13.2958,4.59955,2469.806,2019-7-10T09:14:08Z
2019-07-10T07:16:53Z,42.805,6.029,13.2954,4.59958,2469.806,2019-7-10T09:17:11Z
2019-07-10T07:19:56Z,42.805,6.029,13.2967,4.59959,2469.806,2019-7-10T09:20:14Z
2019-07-10T07:22:59Z,42.805,6.029,13.2960,4.59963,2469.806,2019-7-10T09:23:17Z
2019-07-10T07:26:02Z,42.805,6.029,13.2954,4.59956,2469.806,2019-7-10T09:26:20Z
2019-07-10T07:29:05Z,42.805,6.029,13.2951,4.59953,2469.821,2019-7-10T09:29:23Z
2019-07-10T07:32:08Z,42.805,6.029,13.2953,4.59954,2469.783,2019-7-10T09:32:26Z
2019-07-10T07:35:11Z,42.805,6.029,13.2958,4.59957,2469.797,2019-7-10T09:35:29Z
2019-07-10T07:38:14Z,42.805,6.029,13.2960,4.59956,2469.806,2019-7-10T09:38:32Z
2019-07-10T07:41:17Z,42.805,6.029,13.2959,4.59970,2469.797,2019-7-10T09:41:35Z
2019-07-10T07:44:20Z,42.805,6.029,13.2958,4.59958,2469.806,2019-7-10T09:44:38Z
2019-07-10T07:47:23Z,42.805,6.029,13.2957,4.59958,2469.76,2019-7-10T09:47:41Z
2019-07-10T07:50:26Z,42.805,6.029,13.2961,4.59958,2469.783,2019-7-10T09:50:44Z
2019-07-10T07:53:29Z,42.805,6.029,13.2957,4.59952,2469.783,2019-7-10T09:53:47Z
2019-07-10T07:56:32Z,42.805,6.029,13.2955,4.59954,2469.783,2019-7-10T09:56:50Z
2019-07-10T07:59:35Z,42.805,6.029,13.2958,4.59955,2469.821,2019-7-10T09:59:53Z
2019-07-10T08:02:38Z,42.805,6.029,13.2954,4.59954,2469.806,2019-7-10T10:02:55Z
2019-07-10T08:05:40Z,42.805,6.029,13.2953,4.59955,2469.797,2019-7-10T10:05:58Z
2019-07-10T08:08:43Z,42.805,6.029,13.2955,4.59954,2469.797,2019-7-10T10:09:01Z
2019-07-10T08:11:46Z,42.805,6.029,13.2952,4.59954,2469.797,2019-7-10T10:12:04Z
2019-07-10T08:14:49Z,42.805,6.029,13.2956,4.59960,2469.746,2019-7-10T10:15:07Z
2019-07-10T08:17:52Z,42.805,6.029,13.2957,4.59954,2469.797,2019-7-10T10:18:10Z
2019-07-10T08:20:55Z,42.805,6.029,13.2964,4.59960,2469.76,2019-7-10T10:21:13Z
2019-07-10T08:23:58Z,42.805,6.029,13.2951,4.59961,2469.797,2019-7-10T10:24:16Z
2019-07-10T08:27:01Z,42.805,6.029,13.2958,4.59954,2469.76,2019-7-10T10:27:19Z
2019-07-10T08:30:04Z,42.805,6.029,13.2954,4.59953,2469.773,2019-7-10T10:30:22Z
2019-07-10T08:33:07Z,42.805,6.029,13.2958,4.59958,2469.75,2019-7-10T10:33:25Z
2019-07-10T08:36:10Z,42.805,6.029,13.2967,4.59954,2469.797,2019-7-10T10:36:28Z
2019-07-10T08:39:13Z,42.805,6.029,13.2957,4.59955,2469.773,2019-7-10T10:39:31Z
2019-07-10T08:42:16Z,42.805,6.029,13.2953,4.59954,2469.783,2019-7-10T10:42:34Z
2019-07-10T08:45:19Z,42.805,6.029,13.2953,4.59954,2469.797,2019-7-10T10:45:37Z
2019-07-10T08:48:22Z,42.805,6.029,13.2955,4.59956,2469.76,2019-7-10T10:48:40Z
2019-07-10T08:51:25Z,42.805,6.029,13.2958,4.59952,2469.806,2019-7-10T10:51:43Z
2019-07-10T08:54:28Z,42.805,6.029,13.2967,4.59953,2469.746,2019-7-10T10:54:46Z
2019-07-10T08:57:31Z,42.805,6.029,13.2956,4.59954,2469.773,2019-7-10T10:57:49Z
2019-07-10T09:00:34Z,42.805,6.029,13.2955,4.59961,2469.76,2019-7-10T11:00:52Z
2019-07-10T09:03:37Z,42.805,6.029,13.2957,4.59954,2469.76,2019-7-10T11:03:55Z
2019-07-10T09:06:39Z,42.805,6.029,13.2957,4.59954,2469.76,2019-7-10T11:06:57Z
2019-07-10T09:09:42Z,42.805,6.029,13.2958,4.59956,2469.76,2019-7-10T11:10:00Z
2019-07-10T09:12:45Z,42.805,6.029,13.2959,4.59954,2469.737,2019-7-10T11:13:03Z
2019-07-10T09:15:48Z,42.805,6.029,13.2962,4.59954,2469.76,2019-7-10T11:16:06Z
2019-07-10T09:18:51Z,42.805,6.029,13.2958,4.59956,2469.783,2019-7-10T11:19:09Z
2019-07-10T09:21:54Z,42.805,6.029,13.2960,4.59961,2469.797,2019-7-10T11:22:12Z
2019-07-10T09:24:57Z,42.805,6.029,13.2958,4.59968,2469.797,2019-7-10T11:25:15Z
2019-07-10T09:28:00Z,42.805,6.029,13.2958,4.59955,2469.76,2019-7-10T11:28:18Z
2019-07-10T09:31:03Z,42.805,6.029,13.2962,4.59958,2469.783,2019-7-10T11:31:21Z
2019-07-10T09:34:06Z,42.805,6.029,13.2952,4.59954,2469.76,2019-7-10T11:34:24Z
2019-07-10T09:37:09Z,42.805,6.029,13.2957,4.59955,2469.797,2019-7-10T11:37:27Z
2019-07-10T09:40:12Z,42.805,6.029,13.2953,4.59958,2469.773,2019-7-10T11:40:30Z
2019-07-10T09:43:15Z,42.805,6.029,13.2956,4.59955,2469.783,2019-7-10T11:43:33Z
2019-07-10T09:46:18Z,42.805,6.029,13.2955,4.59955,2469.783,2019-7-10T11:46:36Z
2019-07-10T09:49:21Z,42.805,6.029,13.2956,4.59954,2469.783,2019-7-10T11:49:39Z
2019-07-10T09:52:24Z,42.805,6.029,13.2956,4.59954,2469.783,2019-7-10T11:52:42Z
2019-07-10T09:55:27Z,42.805,6.029,13.2955,4.59954,2469.806,2019-7-10T11:55:45Z
2019-07-10T09:58:30Z,42.805,6.029,13.2958,4.59958,2469.821,2019-7-10T11:58:48Z
2019-07-10T10:01:33Z,42.805,6.029,13.2960,4.59958,2469.773,2019-7-10T12:01:51Z
2019-07-10T10:04:36Z,42.805,6.029,13.2961,4.59957,2469.783,2019-7-10T12:04:54Z
2019-07-10T10:07:39Z,42.805,6.029,13.2953,4.59964,2469.797,2019-7-10T12:07:57Z
2019-07-10T10:10:42Z,42.805,6.029,13.2956,4.59962,2469.797,2019-7-10T12:11:00Z
2019-07-10T10:13:44Z,42.805,6.029,13.2953,4.59955,2469.76,2019-7-10T12:14:02Z
2019-07-10T10:16:47Z,42.805,6.029,13.2955,4.59953,2469.821,2019-7-10T12:17:05Z
2019-07-10T10:19:50Z,42.805,6.029,13.2958,4.59952,2469.797,2019-7-10T12:20:08Z
2019-07-10T10:22:53Z,42.805,6.029,13.2959,4.59963,2469.797,2019-7-10T12:23:11Z
2019-07-10T10:25:56Z,42.805,6.029,13.2953,4.59961,2469.797,2019-7-10T12:26:14Z
2019-07-10T10:28:59Z,42.805,6.029,13.2958,4.59955,2469.821,2019-7-10T12:29:17Z
2019-07-10T10:32:02Z,42.805,6.029,13.2957,4.59954,2469.783,2019-7-10T12:32:20Z
2019-07-10T10:35:05Z,42.805,6.029,13.2959,4.59955,2469.821,2019-7-10T12:35:23Z
2019-07-10T10:38:08Z,42.805,6.029,13.2957,4.59953,2469.783,2019-7-10T12:38:26Z
2019-07-10T10:41:11Z,42.805,6.029,13.2952,4.59954,2469.783,2019-7-10T12:41:29Z
2019-07-10T10:44:14Z,42.805,6.029,13.2954,4.59956,2469.797,2019-7-10T12:44:32Z
2019-07-10T10:47:17Z,42.805,6.029,13.2954,4.59954,2469.83,2019-7-10T12:47:35Z
2019-07-10T10:50:20Z,42.805,6.029,13.2959,4.59954,2469.797,2019-7-10T12:50:38Z
2019-07-10T10:53:23Z,42.805,6.029,13.2953,4.59959,2469.821,2019-7-10T12:53:41Z
2019-07-10T10:56:26Z,42.805,6.029,13.2957,4.59956,2469.806,2019-7-10T12:56:44Z
2019-07-10T10:59:29Z,42.805,6.029,13.2957,4.59960,2469.797,2019-7-10T12:59:47Z
2019-07-10T11:02:32Z,42.805,6.029,13.2954,4.59955,2469.797,2019-7-10T13:02:50Z
2019-07-10T11:05:35Z,42.805,6.029,13.2957,4.59955,2469.83,2019-7-10T13:05:53Z
2019-07-10T11:08:38Z,42.805,6.029,13.2952,4.59960,2469.83,2019-7-10T13:08:56Z
2019-07-10T11:11:41Z,42.805,6.029,13.2952,4.59963,2469.821,2019-7-10T13:11:59Z
2019-07-10T11:14:44Z,42.805,6.029,13.2959,4.59953,2469.83,2019-7-10T13:15:01Z
2019-07-10T11:17:46Z,42.805,6.029,13.2957,4.59956,2469.783,2019-7-10T13:18:04Z
2019-07-10T11:20:49Z,42.805,6.029,13.2959,4.59961,2469.806,2019-7-10T13:21:07Z
2019-07-10T11:23:52Z,42.805,6.029,13.2956,4.59954,2469.844,2019-7-10T13:24:10Z
2019-07-10T11:26:55Z,42.805,6.029,13.2953,4.59958,2469.83,2019-7-10T13:27:13Z
2019-07-10T11:29:58Z,42.805,6.029,13.2955,4.59954,2469.853,2019-7-10T13:30:16Z
2019-07-10T11:33:01Z,42.805,6.029,13.2953,4.59954,2469.844,2019-7-10T13:33:19Z
2019-07-10T11:36:04Z,42.805,6.029,13.2954,4.59956,2469.876,2019-7-10T13:36:22Z
2019-07-10T11:39:07Z,42.805,6.029,13.2959,4.59953,2469.793,2019-7-10T13:39:25Z
2019-07-10T11:42:10Z,42.805,6.029,13.2955,4.59956,2469.844,2019-7-10T13:42:28Z
2019-07-10T11:45:13Z,42.805,6.029,13.2952,4.59953,2469.83,2019-7-10T13:45:31Z
2019-07-10T11:48:16Z,42.805,6.029,13.2953,4.59954,2469.83,2019-7-10T13:48:34Z
2019-07-10T11:51:19Z,42.805,6.029,13.2957,4.59956,2469.83,2019-7-10T13:51:37Z
2019-07-10T11:54:22Z,42.805,6.029,13.2961,4.59956,2469.844,2019-7-10T13:54:40Z
2019-07-10T11:57:25Z,42.805,6.029,13.2954,4.59956,2469.853,2019-7-10T13:57:43Z
2019-07-10T12:00:28Z,42.805,6.029,13.2958,4.59955,2469.867,2019-7-10T14:00:46Z
2019-07-10T12:03:31Z,42.805,6.029,13.2961,4.59953,2469.83,2019-7-10T14:03:49Z
2019-07-10T12:06:34Z,42.805,6.029,13.2956,4.59956,2469.853,2019-7-10T14:06:52Z
2019-07-10T12:09:37Z,42.805,6.029,13.2952,4.59954,2469.853,2019-7-10T14:09:55Z
2019-07-10T12:12:40Z,42.805,6.029,13.2957,4.59953,2469.844,2019-7-10T14:12:58Z
2019-07-10T12:15:43Z,42.805,6.029,13.2952,4.59952,2469.83,2019-7-10T14:16:01Z
2019-07-10T12:18:46Z,42.805,6.029,13.2957,4.59956,2469.89,2019-7-10T14:19:04Z
2019-07-10T12:21:48Z,42.805,6.029,13.2956,4.59955,2469.867,2019-7-10T14:22:06Z
2019-07-10T12:24:51Z,42.805,6.029,13.2958,4.59954,2469.89,2019-7-10T14:25:09Z
2019-07-10T12:27:54Z,42.805,6.029,13.2957,4.59953,2469.853,2019-7-10T14:28:12Z
2019-07-10T12:30:57Z,42.805,6.029,13.2960,4.59953,2469.853,2019-7-10T14:31:15Z
2019-07-10T12:34:00Z,42.805,6.029,13.2958,4.59953,2469.853,2019-7-10T14:34:18Z
2019-07-10T12:37:03Z,42.805,6.029,13.2954,4.59953,2469.853,2019-7-10T14:37:21Z
2019-07-10T12:40:06Z,42.805,6.029,13.2955,4.59951,2469.853,2019-7-10T14:40:24Z
2019-07-10T12:43:09Z,42.805,6.029,13.2957,4.59951,2469.9,2019-7-10T14:43:27Z
2019-07-10T12:46:12Z,42.805,6.029,13.2953,4.59957,2469.853,2019-7-10T14:46:30Z
2019-07-10T12:49:15Z,42.805,6.029,13.2954,4.59952,2469.89,2019-7-10T14:49:33Z
2019-07-10T12:52:18Z,42.805,6.029,13.2958,4.59955,2469.853,2019-7-10T14:52:36Z
2019-07-10T12:55:21Z,42.805,6.029,13.2964,4.59953,2469.876,2019-7-10T14:55:39Z
2019-07-10T12:58:24Z,42.805,6.029,13.2959,4.59956,2469.9,2019-7-10T14:58:42Z
2019-07-10T13:01:27Z,42.805,6.029,13.2955,4.59956,2469.876,2019-7-10T15:01:45Z
2019-07-10T13:04:30Z,42.805,6.029,13.2959,4.59951,2469.876,2019-7-10T15:04:48Z
2019-07-10T13:07:33Z,42.805,6.029,13.2953,4.59957,2469.867,2019-7-10T15:07:51Z
2019-07-10T13:10:36Z,42.805,6.029,13.2953,4.59952,2469.876,2019-7-10T15:10:54Z
2019-07-10T13:13:39Z,42.805,6.029,13.2952,4.59955,2469.89,2019-7-10T15:13:57Z
2019-07-10T13:16:42Z,42.805,6.029,13.2957,4.59953,2469.914,2019-7-10T15:17:00Z
2019-07-10T13:19:45Z,42.805,6.029,13.2957,4.59956,2469.876,2019-7-10T15:20:03Z
2019-07-10T13:22:48Z,42.805,6.029,13.2957,4.59954,2469.853,2019-7-10T15:23:06Z
2019-07-10T13:25:51Z,42.805,6.029,13.2953,4.59953,2469.867,2019-7-10T15:26:09Z
2019-07-10T13:28:53Z,42.805,6.029,13.2957,4.59953,2469.9,2019-7-10T15:29:11Z
2019-07-10T13:31:56Z,42.805,6.029,13.2957,4.59954,2469.853,2019-7-10T15:32:14Z
2019-07-10T13:34:59Z,42.805,6.029,13.2955,4.59954,2469.876,2019-7-10T15:35:17Z
2019-07-10T13:38:02Z,42.805,6.029,13.2957,4.59957,2469.876,2019-7-10T15:38:20Z
2019-07-10T13:41:05Z,42.805,6.029,13.2955,4.59956,2469.9,2019-7-10T15:41:23Z
2019-07-10T13:44:08Z,42.805,6.029,13.2955,4.59954,2469.853,2019-7-10T15:44:26Z
2019-07-10T13:47:11Z,42.805,6.029,13.2953,4.59956,2469.876,2019-7-10T15:47:29Z
2019-07-10T13:50:14Z,42.805,6.029,13.2955,4.59953,2469.876,2019-7-10T15:50:32Z
2019-07-10T13:53:17Z,42.805,6.029,13.2956,4.59957,2469.876,2019-7-10T15:53:35Z
2019-07-10T13:56:20Z,42.805,6.029,13.2954,4.59954,2469.914,2019-7-10T15:56:38Z
2019-07-10T13:59:23Z,42.805,6.029,13.2957,4.59955,2469.876,2019-7-10T15:59:41Z
2019-07-10T14:02:26Z,42.805,6.029,13.2953,4.59956,2469.867,2019-7-10T16:02:44Z
2019-07-10T14:05:29Z,42.805,6.029,13.2953,4.59955,2469.89,2019-7-10T16:05:47Z
2019-07-10T14:08:32Z,42.805,6.029,13.2952,4.59956,2469.853,2019-7-10T16:08:50Z
2019-07-10T14:11:35Z,42.805,6.029,13.2955,4.59958,2469.89,2019-7-10T16:11:53Z
2019-07-10T14:14:38Z,42.805,6.029,13.2957,4.59954,2469.89,2019-7-10T16:14:56Z
2019-07-10T14:17:41Z,42.805,6.029,13.2956,4.59955,2469.876,2019-7-10T16:17:59Z
2019-07-10T14:20:44Z,42.805,6.029,13.2952,4.59955,2469.89,2019-7-10T16:21:02Z
2019-07-10T14:23:47Z,42.805,6.029,13.2958,4.59955,2469.876,2019-7-10T16:24:05Z
2019-07-10T14:26:50Z,42.805,6.029,13.2953,4.59954,2469.9,2019-7-10T16:27:08Z
2019-07-10T14:29:53Z,42.805,6.029,13.2955,4.59966,2469.876,2019-7-10T16:30:11Z
2019-07-10T14:32:55Z,42.805,6.029,13.2957,4.59954,2469.876,2019-7-10T16:33:13Z
2019-07-10T14:35:58Z,42.805,6.029,13.2958,4.59953,2469.89,2019-7-10T16:36:16Z
2019-07-10T14:39:01Z,42.805,6.029,13.2958,4.59956,2469.844,2019-7-10T16:39:19Z
2019-07-10T14:42:04Z,42.805,6.029,13.2954,4.59954,2469.853,2019-7-10T16:42:22Z
2019-07-10T14:45:07Z,42.805,6.029,13.2959,4.59952,2469.867,2019-7-10T16:45:25Z
2019-07-10T14:48:10Z,42.805,6.029,13.2954,4.59954,2469.867,2019-7-10T16:48:28Z
2019-07-10T14:51:13Z,42.805,6.029,13.2958,4.59953,2469.867,2019-7-10T16:51:31Z
2019-07-10T14:54:16Z,42.805,6.029,13.2957,4.59952,2469.89,2019-7-10T16:54:34Z
2019-07-10T14:57:19Z,42.805,6.029,13.2956,4.59953,2469.853,2019-7-10T16:57:37Z
2019-07-10T15:00:22Z,42.805,6.029,13.2954,4.59953,2469.876,2019-7-10T17:00:40Z
2019-07-10T15:03:25Z,42.805,6.029,13.2957,4.59953,2469.83,2019-7-10T17:03:43Z
2019-07-10T15:06:28Z,42.805,6.029,13.2953,4.59954,2469.853,2019-7-10T17:06:46Z
2019-07-10T15:09:31Z,42.805,6.029,13.2959,4.59952,2469.876,2019-7-10T17:09:49Z
2019-07-10T15:12:34Z,42.805,6.029,13.2957,4.59956,2469.853,2019-7-10T17:12:52Z